Volver al catálogo

SL-19 DEB

ActivoUNKNOWN
NORAD 23487·DEBRIS·🇷🇺 Russia

Lanzado Dec 26, 1994 desde Baikonur Cosmodrome

Loading…

Próximos Pases (próximas 24 horas)

TLE

ActualizadoSource: Space-Track

Época: Sep 14, 2026, 02:42 UTC

1 23487U 94085K   26257.11311527  .00000017  00000-0  16390-2 0  9992
2 23487  64.9376 135.2008 0167668 166.4376 347.6010 11.30419591309004

Sigue SL-19 DEB en tiempo real con AllMySat

Download on the App Store